Precipitable_Water
1.37 1.43 1.29 1.30 1.42 1.30 1.28 1.33 1.32 1.38 1.35 1.18 1.03 0.97 0.92 0.85 0.78 0.76 0.66 0.54 0.57 0.63
1.47 1.47 1.39 1.37 1.39 1.31 1.31 1.30 1.34 1.40 1.31 1.15 1.03 0.99 0.93 0.87 0.82 0.77 0.73 0.63 0.54 0.57
1.40 1.54 1.49 1.41 1.30 1.29 1.31 1.27 1.30 1.36 1.24 1.12 1.01 0.97 0.91 0.84 0.81 0.75 0.73 0.69 0.56 0.56
1.39 1.49 1.52 1.37 1.29 1.29 1.32 1.26 1.28 1.28 1.14 1.07 0.93 0.95 0.90 0.85 0.78 0.72 0.69 0.68 0.56 0.55
1.50 1.46 1.46 1.37 1.32 1.30 1.30 1.27 1.26 1.19 1.05 1.03 0.91 0.92 0.91 0.83 0.79 0.69 0.64 0.62 0.55 0.56
1.45 1.44 1.43 1.38 1.31 1.29 1.26 1.26 1.19 1.03 0.96 0.99 0.89 0.90 0.92 0.86 0.79 0.71 0.64 0.62 0.59 0.59
1.40 1.38 1.46 1.38 1.30 1.29 1.22 1.17 1.13 0.93 0.95 0.93 0.84 0.89 0.89 0.83 0.78 0.72 0.65 0.64 0.64 0.63
1.36 1.39 1.44 1.36 1.33 1.26 1.21 1.17 1.00 0.91 0.96 0.90 0.84 0.88 0.85 0.83 0.79 0.70 0.66 0.64 0.64 0.64
1.36 1.40 1.41 1.34 1.31 1.24 1.16 1.13 0.91 0.88 0.91 0.86 0.87 0.88 0.87 0.85 0.76 0.74 0.68 0.62 0.64 0.64
1.36 1.40 1.38 1.36 1.28 1.23 1.12 1.06 0.88 0.86 0.85 0.86 0.89 0.90 0.89 0.84 0.80 0.74 0.68 0.64 0.65 0.62
1.34 1.38 1.40 1.38 1.31 1.27 1.17 1.00 0.88 0.83 0.81 0.84 0.87 0.88 0.86 0.84 0.82 0.75 0.69 0.65 0.65 0.59
1.34 1.34 1.36 1.36 1.37 1.35 1.14 0.97 0.92 0.84 0.79 0.78 0.80 0.80 0.77 0.76 0.71 0.71 0.67 0.67 0.63 0.54
1.38 1.35 1.33 1.39 1.34 1.33 1.17 0.98 0.95 0.87 0.83 0.80 0.79 0.80 0.74 0.69 0.67 0.66 0.65 0.67 0.64 0.61
1.38 1.36 1.40 1.36 1.36 1.31 1.19 1.08 0.97 0.92 0.92 0.87 0.85 0.82 0.76 0.70 0.70 0.70 0.67 0.67 0.64 0.61
Wind_Speed
53 49 45 42 39 35 32 29 28 27 26 25 24 22 21 20 19 17 16 15 14 11
52 51 47 44 40 37 34 31 29 28 27 26 25 24 23 21 20 18 17 16 15 15
50 52 48 45 41 38 35 32 30 30 29 27 27 26 24 22 21 20 18 17 16 15
52 55 50 46 42 39 37 34 32 31 30 29 28 27 25 23 22 21 20 18 17 16
50 55 51 47 43 40 37 35 34 32 31 30 29 28 26 25 23 22 21 19 18 17
50 53 50 47 43 40 38 36 35 33 32 31 31 29 27 26 24 22 21 20 19 18
50 54 50 47 44 41 39 37 35 34 33 32 31 30 28 26 25 23 22 21 20 19
47 51 49 48 44 41 39 38 36 35 33 32 31 30 28 27 25 24 23 22 21 20
41 48 49 47 44 42 39 38 37 35 34 33 31 30 28 27 26 25 24 23 22 21
40 46 46 45 43 41 39 39 37 36 35 34 31 30 29 27 26 25 24 24 23 22
38 46 47 45 44 42 39 39 38 36 35 34 32 31 29 28 27 25 25 24 24 23
37 45 46 45 43 42 41 40 38 37 36 35 33 31 30 29 27 26 26 25 24 24
36 45 45 45 45 42 41 39 38 37 37 35 34 33 31 31 29 28 28 26 26 25
40 41 41 46 44 42 40 39 38 38 37 36 35 34 33 32 31 30 29 28 27 27
Wind_Direction
218 216 217 217 216 218 220 224 225 224 223 222 221 220 218 220 221 224 227 232 236 251
214 214 215 214 215 218 221 223 225 223 223 222 221 220 219 222 224 226 229 234 240 250
216 213 214 213 214 217 220 222 224 223 222 221 221 219 220 224 227 228 232 236 239 247
216 213 210 213 215 217 219 222 223 222 220 220 219 219 222 225 228 229 233 236 239 244
211 207 209 214 215 216 219 221 221 221 219 219 219 220 222 225 228 229 232 235 237 242
207 205 211 212 214 216 218 220 219 219 219 219 220 220 223 225 227 231 232 234 236 241
208 207 210 211 213 216 217 216 218 218 219 220 219 220 223 224 227 231 231 234 238 242
209 207 208 209 213 213 214 216 217 217 218 218 218 220 222 224 228 229 231 234 239 244
206 203 204 208 210 211 214 214 214 216 217 216 218 219 221 224 227 230 231 235 239 244
206 203 205 207 209 210 212 212 214 216 216 217 219 220 223 225 228 230 233 236 240 243
212 207 204 208 210 211 213 211 213 215 216 218 220 221 223 226 229 232 235 238 241 244
213 206 207 211 212 211 211 212 214 216 217 219 221 223 225 227 230 234 236 239 242 245
210 208 211 213 209 209 211 213 215 217 219 220 223 225 226 229 232 233 237 241 243 245
213 213 216 209 205 209 213 215 218 219 221 223 226 228 229 230 233 235 238 241 244 245